Time,B instrument,Bx,By,Bz,sigma B,Ion instrument,Status,Tp_par,Tp_perp,carrot,r_sun,clat,clong,earth_he_angle,n_p,vp_x,vp_y,vp_z,vth_p_par,vth_p_perp
1980-04-13 00:00:23,1,5.83333,-3.35,2.48333,0.350397,1,1,73689.4,59108.8,1694,0.7854557,-4.8232126,302.67871,274.58496,12.2421,295.178,4.48157,22.4769,34.8787,31.2381
1980-04-13 00:01:44,1,6.13333,-2.83333,2.41667,0.368556,1,1,74880.9,60670.4,1694,0.78544986,-4.8232841,302.66699,274.58496,12.2422,292.497,3.99247,19.3433,35.1596,31.648
1980-04-13 00:12:22,1,6.6,-1.8,2.26667,0.188562,1,1,76614.6,63949.0,1694,0.78541458,-4.7126312,302.48267,274.49829,12.4396,290.067,4.7542,20.5078,35.5643,32.4919
1980-04-13 00:13:53,1,6.53333,-1.5,2.93333,0.24037,1,1,77699.8,63270.4,1694,0.7854057,-4.7127461,302.4711,274.49844,12.0887,289.496,0.901595,21.9452,35.8152,32.319
1980-04-13 00:15:04,1,6.7,-1.26667,3.13333,0.176383,1,1,79451.0,64998.6,1694,0.78536832,-4.8242846,302.54712,274.58618,13.0723,287.833,5.26206,24.1183,36.2166,32.7574
1980-04-13 00:16:36,1,6.23333,-1.33333,2.53333,0.316228,1,1,66937.7,65828.7,1694,0.78536248,-4.8243561,302.53149,274.58618,12.4852,290.255,-0.191196,23.2081,33.2425,32.966
1980-04-13 00:19:18,1,6.2,-1.96667,2.0,0.329983,1,1,79159.0,61983.1,1694,0.78534502,-4.8245707,302.5083,274.58643,12.6069,287.518,2.8184,24.0849,36.15,31.9885
1980-04-13 00:22:00,1,6.6,-1.8,2.0,0.0,1,1,87287.4,66466.3,1694,0.78532749,-4.8247852,302.4812,274.58667,13.6234,290.146,-0.975743,21.8425,37.9607,33.1252
1980-04-13 00:24:42,1,6.26667,-1.46667,1.6,0.210819,1,1,79313.6,63186.3,1694,0.78531587,-4.8249283,302.45801,274.58691,12.7238,287.805,0.0118588,21.5482,36.1853,32.2975
1980-04-13 00:27:24,1,6.16667,-1.83333,1.2,0.253859,1,1,75699.8,59948.9,1694,0.78529841,-4.8251429,302.43481,274.58716,12.2681,288.633,1.15403,24.8618,35.3513,31.4593
1980-04-13 00:30:06,1,6.06667,-2.03333,2.0,0.194365,1,1,77262.9,63193.5,1694,0.78528094,-4.8253574,302.40771,274.5874,12.8867,288.97,2.87788,22.4043,35.7144,32.2994
1980-04-13 00:32:48,1,5.53333,-3.53333,4.4,0.85505,1,1,65679.6,45848.5,1694,0.78526926,-4.8254995,302.38428,274.5874,9.35593,296.7,5.46213,6.94703,32.9286,27.5119
1980-04-13 00:35:30,1,5.56667,-3.26667,4.23333,1.47874,1,1,68717.8,54614.6,1694,0.7852518,-4.8257141,302.36108,274.58765,11.6497,289.429,2.26592,17.6085,33.6816,30.027
1980-04-13 00:38:12,1,0.766667,-4.26667,8.5,0.194365,1,1,60481.0,42107.7,1694,0.78523433,-4.8259287,302.33398,274.58789,9.24989,297.085,10.1062,7.39716,31.5986,26.3657
1980-04-13 00:40:54,1,2.9,-5.2,7.2,0.0,1,1,40389.7,33813.5,1694,0.78522265,-4.8260717,302.31079,274.58813,8.37799,297.355,9.35675,9.94381,25.8222,23.6267
1980-04-13 00:43:36,1,3.75,-5.5,5.75,0.254951,1,1,40723.8,38822.8,1694,0.78520519,-4.8262863,302.2876,274.58838,8.48191,290.841,9.39067,24.7327,25.9288,25.3164
1980-04-13 00:46:18,1,3.83333,-5.23333,6.7,0.210819,1,1,37176.8,39249.4,1694,0.78518772,-4.8265009,302.2605,274.58862,8.89112,297.791,7.9393,10.7816,24.7739,25.4551
1980-04-13 00:49:00,1,3.6,-4.43333,7.5,0.169967,1,1,40833.7,41381.0,1694,0.78517026,-4.8267155,302.2373,274.58887,8.86238,298.586,4.17808,4.82982,25.9637,26.1372
1980-04-13 00:51:42,1,2.16667,-4.36667,7.2,0.253859,1,1,65053.5,56098.4,1694,0.78515857,-4.8268585,302.21411,274.58911,10.7108,299.037,8.29137,4.13503,32.7713,30.4322
1980-04-13 00:54:24,1,4.06667,-3.5,6.23333,0.266667,1,1,55446.8,41219.4,1694,0.78514111,-4.8270731,302.18701,274.58936,8.55971,296.865,5.52716,8.14432,30.2549,26.0861
1980-04-13 00:57:06,1,4.3,-3.7,6.86667,0.188562,1,1,49090.9,35965.7,1694,0.78512365,-4.8272877,302.16382,274.5896,8.71124,298.193,7.18464,8.31331,28.4681,24.367
1980-04-13 00:59:48,1,4.23333,-2.23333,6.2,0.24037,1,1,61415.6,52396.8,1694,0.78511196,-4.8274307,302.14038,274.5896,10.1778,292.69,0.718213,6.85976,31.8418,29.411
1980-04-13 01:02:30,1,4.7,-4.15,6.0,0.33541,1,1,47221.4,45608.8,1694,0.7850945,-4.8276453,302.11328,274.58984,9.20202,296.492,4.88785,8.7218,27.9208,27.4399
1980-04-13 01:05:12,1,5.46667,-4.03333,4.8,0.24037,1,1,57306.2,42031.9,1694,0.78507698,-4.8278599,302.09009,274.59009,9.42502,296.773,3.34144,15.6369,30.758,26.3419
1980-04-13 01:07:54,1,5.13333,-3.0,6.26667,0.343188,1,1,42049.0,35877.6,1694,0.78506535,-4.8280029,302.06689,274.59033,8.7666,297.487,2.84606,9.3759,26.3473,24.3371
1980-04-13 01:10:36,1,4.66667,-4.53333,5.8,0.210819,1,1,48363.0,42001.3,1694,0.78504783,-4.8282175,302.03979,274.59058,9.3408,295.034,5.12793,7.67878,28.2562,26.3323
1980-04-13 01:13:18,1,4.03333,-4.66667,6.7,0.194365,1,1,50982.8,41765.7,1694,0.78503036,-4.8284321,302.0166,274.59082,8.96141,298.871,9.86737,4.5255,29.0115,26.2584
1980-04-13 01:16:00,1,3.86667,-4.9,6.7,0.262467,1,1,43076.0,37271.9,1694,0.78501284,-4.8286467,301.99341,274.59106,9.04072,299.986,10.7898,5.17868,26.6671,24.8055
1980-04-13 01:18:42,1,3.4,-5.4,6.8,8.88178e-16,1,1,47643.8,39762.3,1694,0.78500116,-4.8287897,301.96631,274.59131,9.1071,303.372,12.1343,3.68655,28.0454,25.6209
1980-04-13 01:21:24,1,2.66667,-6.0,6.1,0.149071,1,1,42109.2,38623.1,1694,0.78498369,-4.8290043,301.94312,274.59155,8.69342,304.36,15.697,3.54689,26.3661,25.2512
1980-04-13 01:24:06,1,0.733333,-6.93333,4.5,0.437163,1,1,70987.7,39094.3,1694,0.78496623,-4.8292189,301.91992,274.5918,9.46747,309.848,16.0654,14.4892,34.2333,25.4047
1980-04-13 01:26:48,1,3.8,-4.8,6.56667,0.426875,1,1,54431.6,52028.8,1694,0.78495455,-4.8293619,301.89258,274.5918,10.0537,298.661,10.6942,-0.183836,29.9767,29.3076
1980-04-13 01:29:30,1,3.56667,-5.36667,5.93333,0.216025,1,1,53137.9,39186.6,1694,0.78493702,-4.8295765,301.86938,274.59204,8.74594,303.055,14.8559,6.99015,29.6183,25.4347
1980-04-13 01:32:12,1,2.66667,-5.26667,6.53333,0.282843,1,1,50646.5,38813.8,1694,0.78491956,-4.8297911,301.84619,274.59229,8.72242,305.02,13.8291,2.04044,28.9156,25.3134
1980-04-13 01:34:54,1,2.73333,-5.4,6.4,0.298142,1,1,55750.5,34656.5,1694,0.78490788,-4.8299341,301.81909,274.59253,8.88109,305.77,13.2512,2.46059,30.3377,23.9194
1980-04-13 01:37:36,1,3.2,-5.1,6.8,4.44089e-16,1,1,52403.4,40958.5,1694,0.78489041,-4.8301487,301.7959,274.59277,8.8613,301.494,9.40996,-1.47136,29.4129,26.0034
1980-04-13 01:40:18,1,1.86667,-5.7,6.9,0.359011,1,1,51353.7,37248.0,1694,0.78487289,-4.8303633,301.77271,274.59302,9.0756,311.084,13.6672,1.74999,29.1168,24.7976
1980-04-13 01:43:00,1,3.1,-5.53333,6.4,0.169967,1,1,45335.7,34529.8,1694,0.78485543,-4.8305779,301.74561,274.59326,8.2903,305.115,13.0459,2.8649,27.3576,23.8756
1980-04-13 01:45:42,1,3.43333,-5.43333,5.96667,0.216025,1,1,48671.5,37670.0,1694,0.78484374,-4.8307209,301.72241,274.59351,8.69679,303.4,11.7583,4.13281,28.3462,24.9376
1980-04-13 01:48:24,1,3.56667,-5.36667,5.93333,0.216025,1,1,51104.1,39297.8,1694,0.78482628,-4.8309355,301.69922,274.59375,8.98037,300.407,11.0276,2.96591,29.046,25.4708
1980-04-13 01:51:06,1,4.36667,-4.23333,5.7,0.323179,1,1,57491.1,40068.2,1694,0.78480875,-4.8311501,301.67212,274.59399,9.33127,296.841,8.12313,4.94516,30.8076,25.7192
1980-04-13 01:53:48,1,5.3,-3.2,5.16667,0.188562,1,1,56338.2,45157.4,1694,0.78479707,-4.8312931,301.64868,274.59399,9.28307,292.242,3.30282,8.48828,30.4972,27.3038
1980-04-13 01:56:30,1,4.8,-3.9,5.66667,0.188562,1,1,47264.0,34422.1,1694,0.78477961,-4.8315077,301.62549,274.59424,8.03538,294.972,6.22983,6.50623,27.9334,23.8384
1980-04-13 01:59:12,1,4.1,-4.2,6.03333,0.188562,1,1,62086.2,39945.5,1694,0.78476208,-4.8317223,301.59839,274.59448,9.21855,297.841,7.33621,7.05875,32.0151,25.6798
1980-04-13 02:01:54,1,4.0,-4.83333,5.63333,0.323179,1,1,53135.5,34994.5,1694,0.78475046,-4.8318663,301.5752,274.59473,9.02275,298.151,7.09045,5.26872,29.6176,24.0358
1980-04-13 02:04:36,1,4.36667,-3.66667,5.96667,0.966092,1,1,74591.8,36586.8,1694,0.78473294,-4.8320799,301.552,274.59497,9.11066,298.432,3.41813,4.43336,35.0916,24.5765
1980-04-13 02:07:18,1,3.7,-4.4,5.5,0.0,1,1,63265.7,31146.8,1694,0.78471541,-4.8322945,301.5249,274.59521,8.48935,300.841,9.55482,5.36251,32.3178,22.6759
1980-04-13 02:10:00,1,4.36667,-3.96667,5.66667,0.270801,1,1,67206.3,41570.6,1694,0.78469789,-4.832509,301.50171,274.59546,9.53795,299.018,6.58196,6.33132,33.3091,26.197
1980-04-13 02:12:42,1,4.46667,-3.46667,6.06667,0.447214,1,1,51390.4,31896.7,1694,0.78468621,-4.8326521,301.47852,274.5957,8.46387,296.674,4.55312,2.98299,29.1272,22.9473
1980-04-13 02:15:24,1,5.06667,-2.6,5.83333,0.253859,1,1,63228.1,40311.1,1694,0.78466874,-4.8328667,301.45142,274.59595,9.18514,297.281,-0.66955,4.20897,32.3082,25.797
1980-04-13 02:18:06,1,5.23333,-2.83333,4.76667,0.282843,1,1,57053.3,43134.8,1694,0.78465122,-4.8330812,301.42822,274.59619,8.59979,292.491,1.99444,5.63716,30.6901,26.6853
1980-04-13 02:20:48,1,3.86667,-1.23333,7.4,0.539547,1,1,66337.5,41246.2,1694,0.78463954,-4.8332243,301.40479,274.59619,9.78491,299.742,-7.20282,0.0731376,33.0931,26.0945
1980-04-13 02:23:30,1,5.23333,-2.1,5.3,0.359011,1,1,68262.7,37606.8,1694,0.78462201,-4.8334389,301.37769,274.59644,8.66921,293.586,-4.47315,3.82737,33.5699,24.9167
1980-04-13 02:26:12,1,5.63333,-3.66667,3.16667,0.454606,1,1,61074.5,47994.8,1694,0.78460449,-4.8336535,301.35449,274.59668,10.0059,294.719,4.8554,16.7957,31.7532,28.1485
1980-04-13 02:28:54,1,4.9,-3.4,5.0,0.0,1,1,52286.3,33242.2,1694,0.78459281,-4.8337965,301.3313,274.59692,8.21215,294.059,2.01921,5.93871,29.38,23.4263
1980-04-13 02:31:36,1,5.05,-2.7,5.3,0.206155,1,1,62667.5,42343.5,1694,0.78457534,-4.8340111,301.3042,274.59717,9.07917,293.525,0.0869,2.20628,32.1647,26.4394
1980-04-13 02:34:18,1,5.56667,-1.93333,5.16667,0.282843,1,1,61447.0,47882.2,1694,0.78455782,-4.8342247,301.28101,274.59741,8.98308,292.895,-6.90865,-2.17439,31.8499,28.1154
1980-04-13 02:37:00,1,6.0,-1.3,2.8,0.894427,1,1,85417.0,43477.3,1694,0.7845403,-4.8344393,301.25781,274.59766,9.59054,296.709,-11.9019,5.73582,37.5517,26.791
1980-04-13 02:39:42,1,6.3,-1.9,3.2,4.96507e-16,1,1,42778.9,45053.0,1694,0.78452861,-4.8345823,301.23071,274.5979,9.33715,287.124,-6.71112,11.5017,26.575,27.2722
1980-04-13 02:42:24,1,5.93333,-2.8,2.86667,0.266667,1,1,39506.7,43930.5,1694,0.78451109,-4.8347969,301.20752,274.59814,7.39532,288.061,2.00229,17.7543,25.5384,26.9303
1980-04-13 02:45:06,1,6.0,-3.4,2.5,0.0,1,1,51277.1,39446.5,1694,0.78449363,-4.8350115,301.18042,274.59839,9.46313,293.234,3.96671,15.4205,29.0951,25.5189
1980-04-13 02:47:48,1,5.6,-3.53333,1.96667,0.194365,1,1,58834.5,44161.7,1694,0.78448194,-4.8351545,301.15698,274.59839,9.98043,296.467,4.23644,16.4622,31.1655,27.0011
1980-04-13 02:50:30,1,5.8,-2.8,3.1,0.3,1,1,52673.7,40119.6,1694,0.78449243,-4.7242756,301.04642,274.51126,9.14779,296.548,3.10216,10.5773,29.4886,25.7357
1980-04-13 02:52:39,-1,nan,nan,nan,nan,1,4,nan,nan,1694,0.78445274,-4.8355122,301.1145,274.59888,nan,nan,nan,nan,nan,nan
1980-04-13 02:53:12,1,4.76667,-4.2,2.76667,0.50111,1,1,64130.8,46691.0,1694,0.78447676,-4.7244735,301.01929,274.51147,10.1832,302.493,6.68006,11.3131,32.538,27.7635
1980-04-13 02:55:52,1,5.0,-4.45,2.8,0.33541,1,1,54282.5,45128.6,1694,0.78443521,-4.8357267,301.0835,274.59912,9.3243,298.289,7.24538,11.537,29.9356,27.295
1980-04-13 03:35:51,-1,nan,nan,nan,nan,1,3,nan,nan,1694,0.78420156,-4.8385878,300.71973,274.60254,nan,293.442,-2.21031,13.6696,nan,nan
1980-04-13 03:46:39,-1,nan,nan,nan,nan,1,3,nan,nan,1694,0.78413731,-4.8393745,300.62305,274.60352,nan,292.236,0.768302,8.1618,nan,nan
1980-04-13 03:57:27,-1,nan,nan,nan,nan,1,3,nan,nan,1694,0.78407305,-4.8401613,300.52612,274.60425,nan,299.115,10.5883,5.71996,nan,nan
1980-04-13 04:08:15,-1,nan,nan,nan,nan,1,3,nan,nan,1694,0.78400874,-4.8409491,300.42554,274.60522,nan,297.315,8.42268,6.93849,nan,nan
1980-04-13 04:19:04,-1,nan,nan,nan,nan,1,3,nan,nan,1694,0.78394443,-4.8417358,300.32886,274.6062,nan,294.026,1.6127,5.79999,nan,nan
1980-04-13 04:29:52,-1,nan,nan,nan,nan,1,3,nan,nan,1694,0.78388596,-4.8424511,300.23193,274.60693,nan,298.532,11.18,22.1257,nan,nan
1980-04-13 04:40:39,-1,nan,nan,nan,nan,1,3,nan,nan,1694,0.78382158,-4.8432379,300.13135,274.60791,nan,298.652,-3.67835,11.2062,nan,nan
1980-04-13 04:51:28,-1,nan,nan,nan,nan,1,3,nan,nan,1694,0.78375727,-4.8440247,300.03467,274.60889,nan,306.138,-7.96258,-6.76094,nan,nan
1980-04-13 05:02:15,-1,nan,nan,nan,nan,1,3,nan,nan,1694,0.78369296,-4.8448124,299.93384,274.60962,nan,303.819,18.9401,22.4639,nan,nan
1980-04-13 05:13:03,-1,nan,nan,nan,nan,1,3,nan,nan,1694,0.78362858,-4.8455992,299.83716,274.6106,nan,306.868,-19.9682,-9.108,nan,nan
1980-04-13 05:23:52,-1,nan,nan,nan,nan,1,3,nan,nan,1694,0.78356999,-4.8463144,299.74048,274.61157,nan,297.983,8.5135,11.8847,nan,nan
1980-04-13 05:34:39,-1,nan,nan,nan,nan,1,3,nan,nan,1694,0.78350562,-4.8471022,299.63965,274.6123,nan,311.76,6.44151,14.8301,nan,nan
1980-04-13 05:45:27,-1,nan,nan,nan,nan,1,3,nan,nan,1694,0.78344125,-4.8478889,299.54297,274.61328,nan,300.52,14.5681,12.155,nan,nan
1980-04-13 05:56:15,-1,nan,nan,nan,nan,1,3,nan,nan,1694,0.78337681,-4.8486757,299.44629,274.61426,nan,296.427,13.5752,12.5737,nan,nan
1980-04-13 06:07:03,-1,nan,nan,nan,nan,1,3,nan,nan,1694,0.78331244,-4.8494635,299.3457,274.61523,nan,318.765,-11.1263,-8.47736,nan,nan
1980-04-13 06:17:51,-1,nan,nan,nan,nan,1,3,nan,nan,1694,0.78325385,-4.8501797,299.24878,274.61597,nan,319.875,-15.5465,-10.0599,nan,nan
1980-04-13 06:28:40,-1,nan,nan,nan,nan,1,3,nan,nan,1694,0.78318942,-4.8509674,299.1521,274.61694,nan,299.261,5.43618,-1.11836,nan,nan
1980-04-13 06:39:28,-1,nan,nan,nan,nan,1,3,nan,nan,1694,0.78312492,-4.8517551,299.05151,274.61792,nan,304.047,7.37087,28.4931,nan,nan
1980-04-13 06:50:16,-1,nan,nan,nan,nan,1,3,nan,nan,1694,0.78306049,-4.8525429,298.95483,274.6189,nan,298.235,0.10879,5.50918,nan,nan
1980-04-13 07:01:04,-1,nan,nan,nan,nan,1,3,nan,nan,1694,0.78299606,-4.8533306,298.85425,274.61987,nan,302.111,-0.674922,3.76527,nan,nan
1980-04-13 07:06:55,-1,nan,nan,nan,nan,1,3,nan,nan,1694,0.78299218,-4.7431674,298.71646,274.53287,nan,302.11,-0.673767,3.76529,nan,nan
1980-04-13 07:11:52,1,5.8,1.0,7.5,0.0,1,1,52372.5,59837.2,1694,0.78293741,-4.8540459,298.75732,274.62061,10.9458,307.093,1.56913,0.324315,29.4042,31.4299
1980-04-13 07:48:12,1,5.48333,-1.41667,7.1,0.377859,1,1,48918.1,48755.4,1694,0.78275007,-4.7462096,298.34109,274.53641,11.744,298.665,7.88157,-8.39222,28.418,28.3706
1980-04-13 07:49:32,1,6.06667,-2.66667,5.61667,0.314907,1,1,60330.4,45460.0,1694,0.78274232,-4.7463055,298.32947,274.5365,11.6881,296.998,12.6116,-0.895063,31.5592,27.3951
1980-04-13 07:50:25,1,6.5,-1.86667,5.53333,0.218581,1,1,52260.6,46788.8,1694,0.7827087,-4.8568392,298.40918,274.62402,11.6928,302.413,1.72953,-14.981,29.3728,27.7926
1980-04-13 07:50:53,1,6.3,-1.44,5.68,0.56921,1,1,59028.3,49138.4,1694,0.78270864,-4.8568392,298.40527,274.62402,12.2814,293.58,7.45521,0.370695,31.2168,28.4819
1980-04-13 07:52:14,1,6.4,-1.45,5.66667,0.267187,1,1,60061.6,45539.7,1694,0.78269696,-4.8569822,298.38989,274.62427,11.8731,294.335,4.85419,-1.51542,31.4888,27.4191
1980-04-13 07:53:35,1,5.78333,-1.71667,6.53333,0.302765,1,1,56478.1,48193.6,1694,0.78269106,-4.8570538,298.37817,274.62427,11.5917,298.909,6.24767,-12.2992,30.535,28.2067
1980-04-13 07:54:56,1,6.53333,-1.9,5.06667,0.401386,1,1,53588.0,45881.5,1694,0.78268522,-4.8571253,298.36646,274.62427,11.5891,292.455,7.2905,0.435904,29.7435,27.5218
1980-04-13 07:56:17,1,6.11667,-3.08333,4.31667,0.940301,1,1,51416.8,50857.5,1694,0.78267348,-4.8572683,298.35498,274.62451,12.3318,296.516,18.4729,11.9063,29.1347,28.9758
1980-04-13 07:57:38,1,6.7,-2.08333,5.26667,0.283333,1,1,54214.3,48180.0,1694,0.78266764,-4.8573399,298.34326,274.62451,12.3588,294.814,5.34176,-3.54916,29.9168,28.2027
1980-04-13 07:58:59,1,5.88,-3.58,4.98,0.375233,1,1,51905.6,49587.6,1694,0.78266174,-4.8574114,298.33179,274.62476,11.7617,297.662,15.1991,-2.96554,29.2729,28.6118
1980-04-13 08:00:20,1,5.68,-3.74,4.92,0.474974,1,1,68126.4,47340.7,1694,0.78265005,-4.8575554,298.31641,274.625,11.6288,302.141,17.6529,-3.10039,33.5363,27.956
1980-04-13 08:01:41,1,6.48333,-3.18333,4.7,0.461278,1,1,46944.7,48507.6,1694,0.78264415,-4.8576269,298.30469,274.625,10.7046,297.633,19.198,-1.96057,27.8389,28.2985
1980-04-13 08:03:02,1,6.4,-3.66667,4.41667,0.2651,1,1,43277.6,40892.9,1694,0.78263241,-4.85777,298.29321,274.62524,11.009,293.234,14.2314,-1.81408,26.7294,25.9825
1980-04-13 08:04:23,1,6.25,-3.63333,4.9,0.134371,1,1,48706.0,54262.0,1694,0.78262657,-4.8578415,298.28149,274.62524,11.3362,298.198,15.3563,-5.6324,28.3563,29.9299
1980-04-13 08:05:44,1,6.65,-2.81667,4.13333,0.390868,1,1,39393.0,42505.7,1694,0.78262067,-4.857913,298.26978,274.62524,10.0379,291.218,8.98652,-0.378923,25.5016,26.49
1980-04-13 08:07:05,1,4.65,-5.53333,4.35,0.941925,1,1,63990.2,47539.5,1694,0.78260893,-4.8580561,298.25439,274.62549,11.3868,298.597,22.7351,-0.143606,32.5023,28.0147
1980-04-13 08:08:26,1,5.18333,-5.05,3.81667,0.274368,1,1,61804.3,36366.7,1694,0.78260309,-4.8581276,298.24268,274.62549,9.91524,294.194,17.015,-0.0141373,31.9424,24.5025
1980-04-13 08:09:47,1,4.76,-5.6,3.82,0.303315,1,1,54603.7,44793.7,1694,0.78259718,-4.8581991,298.2312,274.62573,10.7307,300.403,23.6858,-1.53976,30.024,27.1936
1980-04-13 08:11:08,1,5.76,-4.34,3.64,0.350999,1,1,55009.7,41585.5,1694,0.78258544,-4.8583422,298.21948,274.62573,10.8114,296.602,18.9065,0.580397,30.1355,26.2017
1980-04-13 08:12:29,1,5.1,-4.66,2.76,1.41873,1,1,44616.0,61295.3,1694,0.7825796,-4.8584137,298.20801,274.62598,12.6945,292.441,15.5649,9.23739,27.1396,31.8106
1980-04-13 08:13:50,1,6.2,-3.7,2.98,0.16,1,1,47208.7,41562.7,1694,0.7825737,-4.8584852,298.19629,274.62598,10.1857,289.952,13.3074,6.76136,27.917,26.1945
1980-04-13 08:15:11,1,5.66667,-4.1,2.61667,0.300463,1,1,66415.3,56030.1,1694,0.78256196,-4.8586292,298.18091,274.62622,11.782,293.691,14.9678,8.6106,33.1125,30.4137
1980-04-13 08:16:32,1,5.1,-3.63333,3.55,1.45993,1,1,61422.3,47400.4,1694,0.78255612,-4.8587008,298.16919,274.62622,9.32227,310.101,12.7395,-13.4111,31.8435,27.9736
1980-04-13 08:17:53,1,4.45,-4.13333,4.23333,0.862329,1,1,81690.2,64268.4,1694,0.78255022,-4.8587723,298.15747,274.62622,11.592,297.259,14.9956,3.34567,36.7234,32.5729
1980-04-13 08:19:14,1,5.56,-3.56,3.54,0.274226,1,1,63949.8,52606.3,1694,0.78253847,-4.8589153,298.146,274.62646,11.5619,294.784,14.0711,3.04447,32.4921,29.4698
1980-04-13 08:20:35,1,5.0,-4.28,3.48,0.251396,1,1,56964.7,64134.2,1694,0.78253263,-4.8589869,298.13452,274.62671,11.1704,295.541,15.0351,3.27116,30.6663,32.5389
1980-04-13 08:21:56,1,4.4,-4.8,3.8,0.4,1,1,67316.0,58948.1,1694,0.78252673,-4.8590584,298.1228,274.62671,11.6471,301.949,18.6158,3.4305,33.3363,31.1956
1980-04-13 08:23:17,1,4.78333,-4.13333,3.4,0.702575,1,1,71050.5,61093.7,1694,0.78251499,-4.8592014,298.10742,274.62695,11.9796,297.001,9.96464,1.55458,34.2485,31.7582
1980-04-13 08:24:38,1,4.38,-4.88,4.12,0.304631,1,1,75676.5,53286.3,1694,0.78250915,-4.859273,298.0957,274.62695,11.5145,301.754,15.0768,0.419799,35.3458,29.6596
1980-04-13 08:25:59,1,4.76667,-3.85,3.6,0.323608,1,1,85409.3,66283.5,1694,0.78250325,-4.8593445,298.08398,274.62695,12.3933,297.693,9.06147,4.3341,37.5501,33.0796
1980-04-13 08:27:20,1,4.9,-3.4,3.96667,0.334996,1,1,59053.2,50553.4,1694,0.78249151,-4.8594875,298.07251,274.6272,10.2498,297.605,13.7373,2.14603,31.2234,28.889
1980-04-13 08:28:41,1,5.06667,-3.28333,3.06667,0.657647,1,1,73089.0,63293.9,1694,0.78248566,-4.8595591,298.06079,274.6272,11.5376,298.366,10.6932,7.92985,34.7363,32.325
1980-04-13 08:30:02,1,4.66667,-3.96667,2.08333,0.699405,1,1,62662.4,59441.5,1694,0.78247392,-4.8597031,298.04932,274.62744,11.0486,299.289,14.1556,11.4086,32.1634,31.3258
1980-04-13 08:31:23,1,4.86667,-2.2,1.5,0.449691,1,1,61919.2,72915.3,1694,0.78246808,-4.8597746,298.03369,274.62744,13.3854,293.102,10.6477,7.3932,31.9721,34.695
1980-04-13 08:32:44,1,4.18,-2.86,2.6,0.379473,1,1,59124.8,69985.6,1694,0.78246218,-4.8598461,298.02222,274.62769,12.3412,296.085,8.85592,1.17597,31.2423,33.9909
1980-04-13 08:34:05,1,3.88,-2.46,3.24,0.574804,1,1,56762.5,71055.8,1694,0.78245044,-4.8599892,298.0105,274.62769,13.0207,292.532,14.7151,-0.0449134,30.6118,34.2498
1980-04-13 08:35:26,1,4.1,-2.53333,4.2,0.235702,1,1,65710.2,77910.3,1694,0.7824446,-4.8600607,297.99902,274.62793,12.4764,295.166,8.69985,-1.63935,32.9363,35.8637
1980-04-13 08:38:08,1,2.75,-5.13333,4.01667,0.489331,1,1,56516.0,46506.9,1694,0.78242695,-4.8602753,297.97583,274.62817,12.4067,301.425,18.5305,-5.21698,30.5452,27.7087
1980-04-13 08:39:29,1,1.71667,-5.21667,3.7,0.729916,1,1,62541.8,56755.1,1694,0.78242111,-4.8603468,297.96021,274.62817,11.6452,308.765,24.6114,-0.596445,32.1324,30.6098
1980-04-13 09:51:10,-1,nan,nan,nan,nan,1,3,nan,nan,1694,0.78199816,-4.8655024,297.3103,274.63452,nan,296.055,7.94252,8.96722,nan,nan
1980-04-13 09:52:31,1,7.61667,-1.73333,3.11667,1.46458,1,1,54215.8,57211.8,1694,0.78199226,-4.8655739,297.29883,274.63477,11.2847,294.093,11.0671,12.0001,29.9172,30.7327
1980-04-13 09:53:52,1,6.95,-3.0,4.2,0.35473,1,1,54978.5,55574.1,1694,0.78198642,-4.8656454,297.28711,274.63477,11.0487,298.029,11.4391,3.52238,30.1269,30.2896
1980-04-13 09:55:13,1,7.45,-3.01667,2.6,0.295334,1,1,57468.4,55775.3,1694,0.78197461,-4.8657885,297.27563,274.63501,11.9517,296.653,10.0785,8.80041,30.8016,30.3444
1980-04-13 09:56:35,1,7.4,-3.15,2.08333,0.383695,1,1,53501.3,54695.6,1694,0.78196877,-4.86586,297.26001,274.63501,11.9152,296.477,10.1359,8.30262,29.7194,30.0493
1980-04-13 09:57:56,1,6.11667,-4.16667,3.7,0.36094,1,1,68683.4,62535.9,1694,0.78196287,-4.8659315,297.24829,274.63501,13.6818,292.151,13.0874,-1.8136,33.6731,32.1309
1980-04-13 09:59:17,1,5.81667,-3.43333,4.76667,1.97632,1,1,49523.6,60063.5,1694,0.78195113,-4.8660746,297.23682,274.63525,10.6676,297.253,20.1974,-1.30214,28.5933,31.4893
1980-04-13 10:00:38,1,6.55,-2.88333,5.28333,0.501941,1,1,53069.2,58182.0,1694,0.78194529,-4.866147,297.22534,274.6355,12.4484,297.77,11.23,-1.10494,29.5991,30.9922
1980-04-13 10:01:59,1,6.08333,-4.71667,3.8,0.639878,1,1,63168.7,53656.5,1694,0.78193939,-4.8662186,297.21362,274.6355,12.5006,298.436,16.8405,1.50752,32.293,29.7625
1980-04-13 10:03:20,1,6.31667,-2.91667,5.71667,0.301386,1,1,62905.4,54521.1,1694,0.78192765,-4.8663616,297.20215,274.63574,11.9037,297.882,10.1477,-4.92673,32.2257,30.0013
1980-04-13 10:04:41,1,6.15,-4.98333,5.03333,0.287711,1,1,55190.3,53044.7,1694,0.78192174,-4.8664331,297.18652,274.63574,11.5478,301.517,11.842,-2.37271,30.1849,29.5923
1980-04-13 10:06:02,1,4.98333,-3.3,7.8,0.240947,1,1,62662.8,52787.9,1694,0.78191,-4.8665762,297.17505,274.63599,11.7923,305.342,8.25927,-8.66887,32.1635,29.5206
1980-04-13 10:07:23,1,5.08333,-5.23333,5.55,0.506074,1,1,57211.1,50985.6,1694,0.7819041,-4.8666477,297.16333,274.63599,11.8626,304.508,18.512,-0.195353,30.7325,29.0123
1980-04-13 10:08:44,1,3.91667,-4.56667,6.83333,0.754431,1,1,64373.7,54412.2,1694,0.7818982,-4.8667192,297.15161,274.63599,12.3036,305.559,18.0791,-5.43919,32.5996,29.9713
1980-04-13 10:10:05,1,3.85,-4.9,7.36667,0.463381,1,1,62521.5,52147.9,1694,0.78188646,-4.8668623,297.14014,274.63623,11.8799,309.133,14.8543,-3.31478,32.1272,29.3411
1980-04-13 10:11:26,1,5.43333,-4.78333,4.83333,0.585235,1,1,62111.2,55732.1,1694,0.78188056,-4.8669338,297.12842,274.63623,13.2654,297.878,22.9315,0.107371,32.0216,30.3327
1980-04-13 10:12:47,1,5.45,-4.4,5.25,0.285774,1,1,67026.8,52528.8,1694,0.78187466,-4.8670063,297.11304,274.63647,13.01,300.411,17.374,0.745909,33.2646,29.448
1980-04-13 10:14:08,1,5.15,-4.05,5.58333,0.675566,1,1,60369.8,61569.5,1694,0.78186291,-4.8671494,297.10132,274.63647,12.7194,301.525,17.4062,-4.58194,31.5695,31.8817
1980-04-13 10:15:29,1,4.01667,-4.53333,6.96667,0.471699,1,1,70449.4,55052.0,1694,0.78185707,-4.8672209,297.08984,274.63672,13.3695,303.646,18.3131,-4.8119,34.1033,30.147
1980-04-13 10:16:50,1,4.65,-4.46667,6.4,0.417998,1,1,64301.9,55296.0,1694,0.78185117,-4.8672924,297.07813,274.63672,13.0535,304.533,17.6929,-1.88945,32.5814,30.2138
1980-04-13 10:18:11,1,3.65,-4.41667,6.7,0.289636,1,1,75671.2,54829.6,1694,0.78183943,-4.8674355,297.06665,274.63696,14.0822,307.409,20.9499,-6.78368,35.3446,30.0861
1980-04-13 10:19:32,1,4.66667,-4.53333,6.2,0.210819,1,1,70218.5,54737.5,1694,0.78183353,-4.867507,297.05103,274.63696,14.0424,297.689,18.0408,-5.06058,34.0474,30.0608